Change the Weather History Date:

Thursday, December 5, 2013

  Actual Average Record
Temperature  
Mean Temperature 20 °F 36 °F  
Max Temperature 23 °F 46 °F 73 °F (2001)
Min Temperature 16 °F 26 °F 3 °F (1964)
Degree Days  
Heating Degree Days 45 29  
Month to date heating degree days 139 140  
Since 1 July heating degree days 1024 1016  
Cooling Degree Days 0 0  
Month to date cooling degree days 0 0  
Year to date cooling degree days 1778 1686  
Moisture  
Dew Point 4 °F    
Average Humidity 56    
Maximum Humidity 67    
Minimum Humidity 45    
Precipitation  
Precipitation T in 0.04 in 0.76 in (1913)
Month to date precipitation T 0.22  
Year to date precipitation 39.85 31.66  
Snow  
Snow T in 0.10 in 8.00 in (1942)
Month to date snowfall T 0.6  
Since 1 July snowfall T 2.0  
Snow Depth 0.00 in    
Sea Level Pressure  
Sea Level Pressure 30.32 in    
Wind  
Wind Speed 16 mph (North)    
Max Wind Speed 26 mph    
Max Gust Speed 35 mph    
Visibility 10 miles    
Events Snow    
T = Trace of Precipitation, MM = Missing Value Source: NWS Daily Summary

Daily Weather History Graph

Daily Weather History Graph

Search for Another Location

Airport or City:

Trip Planner

Search our weather history database for the weather conditions in past years. The results will help you decide how hot, cold, wet, or windy it might be!

Date:

Astronomy

Dec. 05, 2013 Rise Set
Actual Time 7:29 AM CST 5:10 PM CST
Civil Twilight 7:00 AM CST 5:40 PM CST
Nautical Twilight 6:28 AM CST 6:12 PM CST
Astronomical Twilight 5:56 AM CST 6:44 PM CST
Moon 9:52 AM CST (12/5) 8:31 PM CST (12/5)
Length of Visible Light 10h 39m
Length of Day
9h 41m
Waxing Crescent, 11% of the Moon is Illuminated
Dec 5
Waxing Crescent
Dec 9
First Quarter
Dec 17
Full
Dec 25
Last Quarter
Jan 1
New

Hourly Weather History & Observations

Time (CST) Temp. Windchill Dew Point Humidity Pressure Visibility Wind Dir Wind Speed Gust Speed Precip Events Conditions
12:06 AM 21.2 °F 6.4 °F 10.4 °F 63% 30.10 in 10.0 mi North 18.4 mph 28.8 mph 0.00 in Snow Light Snow
12:53 AM 21.9 °F 5.8 °F 9.0 °F 58% 30.17 in 10.0 mi NNW 23.0 mph 31.1 mph 0.00 in   Overcast
1:53 AM 21.0 °F 4.3 °F 8.1 °F 57% 30.19 in 10.0 mi North 24.2 mph 28.8 mph N/A   Overcast
2:53 AM 19.9 °F 3.9 °F 8.1 °F 60% 30.22 in 10.0 mi North 20.7 mph 27.6 mph N/A   Scattered Clouds
3:53 AM 19.0 °F 3.2 °F 7.0 °F 59% 30.23 in 10.0 mi North 19.6 mph - N/A   Mostly Cloudy
4:53 AM 19.0 °F 3.2 °F 7.0 °F 59% 30.27 in 10.0 mi NNW 19.6 mph 24.2 mph N/A   Mostly Cloudy
5:53 AM 19.0 °F 3.2 °F 3.9 °F 52% 30.28 in 10.0 mi North 19.6 mph 27.6 mph N/A   Mostly Cloudy
6:53 AM 18.0 °F 0.9 °F 3.9 °F 54% 30.29 in 10.0 mi North 21.9 mph 28.8 mph N/A   Mostly Cloudy
7:53 AM 18.0 °F 2.6 °F 3.0 °F 52% 30.31 in 10.0 mi North 17.3 mph 26.5 mph N/A   Mostly Cloudy
8:53 AM 17.1 °F 1.0 °F 3.0 °F 54% 30.34 in 10.0 mi North 18.4 mph 24.2 mph N/A   Overcast
9:53 AM 17.1 °F -0.3 °F 3.0 °F 54% 30.35 in 10.0 mi North 21.9 mph - N/A   Overcast
10:53 AM 17.1 °F 3.0 °F 1.9 °F 52% 30.38 in 10.0 mi North 13.8 mph 20.7 mph N/A   Overcast
11:53 AM 17.1 °F 2.0 °F 1.9 °F 52% 30.35 in 10.0 mi North 16.1 mph - N/A   Overcast
12:53 PM 18.0 °F 4.2 °F 3.0 °F 52% 30.31 in 10.0 mi North 13.8 mph - N/A   Overcast
1:53 PM 19.0 °F 7.5 °F 3.0 °F 50% 30.33 in 10.0 mi North 10.4 mph - 0.00 in   Overcast
2:53 PM 19.0 °F 8.2 °F 3.0 °F 50% 30.31 in 10.0 mi North 9.2 mph - N/A   Overcast
3:53 PM 19.0 °F 6.1 °F 3.0 °F 50% 30.33 in 9.0 mi NNW 12.7 mph - 0.00 in Snow Light Snow
4:53 PM 19.0 °F 6.1 °F 1.9 °F 47% 30.33 in 10.0 mi North 12.7 mph - 0.00 in   Overcast
5:53 PM 19.0 °F 5.6 °F 1.9 °F 47% 30.32 in 10.0 mi North 13.8 mph - N/A   Overcast
6:53 PM 19.0 °F 8.2 °F 1.9 °F 47% 30.35 in 10.0 mi NNE 9.2 mph - N/A   Overcast
7:53 PM 19.0 °F 6.8 °F 1.9 °F 47% 30.38 in 10.0 mi North 11.5 mph - N/A   Overcast
8:53 PM 18.0 °F 4.2 °F 1.0 °F 48% 30.38 in 10.0 mi North 13.8 mph 19.6 mph N/A   Overcast
9:53 PM 18.0 °F 4.8 °F 1.9 °F 50% 30.40 in 10.0 mi North 12.7 mph - N/A   Overcast
10:53 PM 17.1 °F 2.5 °F 8.1 °F 68% 30.42 in 10.0 mi North 15.0 mph - N/A   Overcast
11:53 PM 16.0 °F 1.7 °F 8.1 °F 71% 30.44 in 10.0 mi North 13.8 mph 21.9 mph 0.00 in Snow Light Snow